TBV8581 SCEL-SBGR

Flight info

Callsign TBV8581
Flight time 2h 53m
Altitude 37000
Route NEBEG7C NEBEG UL531 ESITO UT652 SIKOB UM400 SAVLU UZ121 BUXUK
Aircraft A339/H-SADE1E2E3GHIJ3J5M1P2RWXY/LB2D1

Departure

Time 2026-05-05 17:48
Airport Comodoro Arturo Merino Benítez International Airport (SCEL)

Arrival

Time 2026-05-05 20:41
Airport São Paulo/Guarulhos–Governor André Franco Montoro International Airport (SBGR)
Time Latitude Longitude Altitude Speed Heading
2026-05-05 17:20 -33.40242 -70.79699 1570 ft 0 kts 178°
2026-05-05 17:31 -33.40238 -70.79699 1570 ft 2 kts 178°
2026-05-05 17:31 -33.40221 -70.79700 1570 ft 2 kts 178°
2026-05-05 17:32 -33.40205 -70.79702 1570 ft 3 kts 192°
2026-05-05 17:32 -33.40189 -70.79699 1570 ft 3 kts 225°
2026-05-05 17:32 -33.40178 -70.79687 1570 ft 3 kts 258°
2026-05-05 17:32 -33.40175 -70.79663 1570 ft 3 kts 268°
2026-05-05 17:33 -33.40175 -70.79651 1570 ft 0 kts 267°
2026-05-05 17:37 -33.40175 -70.79653 1570 ft 2 kts 267°
2026-05-05 17:37 -33.40180 -70.79792 1570 ft 24 kts 267°
2026-05-05 17:37 -33.40167 -70.79916 1571 ft 15 kts 280°
2026-05-05 17:38 -33.40118 -70.80001 1572 ft 12 kts 342°
2026-05-05 17:38 -33.40033 -70.80010 1572 ft 12 kts 357°
2026-05-05 17:38 -33.39945 -70.80015 1572 ft 13 kts 357°
2026-05-05 17:38 -33.39855 -70.80025 1572 ft 13 kts 355°
2026-05-05 17:39 -33.39762 -70.80035 1572 ft 14 kts 354°
2026-05-05 17:39 -33.39667 -70.80046 1572 ft 14 kts 356°
2026-05-05 17:39 -33.39570 -70.80042 1572 ft 14 kts
2026-05-05 17:39 -33.39470 -70.80038 1571 ft 14 kts 358°
2026-05-05 17:40 -33.39369 -70.80046 1572 ft 15 kts 356°
2026-05-05 17:40 -33.39267 -70.80054 1572 ft 15 kts 356°
2026-05-05 17:40 -33.39164 -70.80064 1572 ft 15 kts 355°
2026-05-05 17:40 -33.39061 -70.80074 1572 ft 15 kts 355°
2026-05-05 17:41 -33.38958 -70.80080 1573 ft 15 kts 359°
2026-05-05 17:41 -33.38853 -70.80084 1573 ft 15 kts 358°
2026-05-05 17:41 -33.38746 -70.80088 1573 ft 16 kts 359°
2026-05-05 17:41 -33.38637 -70.80092 1573 ft 16 kts 358°
2026-05-05 17:42 -33.38526 -70.80099 1573 ft 16 kts 356°
2026-05-05 17:42 -33.38415 -70.80107 1572 ft 16 kts 359°
2026-05-05 17:42 -33.38299 -70.80112 1572 ft 17 kts 357°
2026-05-05 17:42 -33.38182 -70.80119 1572 ft 17 kts 356°
2026-05-05 17:43 -33.38065 -70.80128 1572 ft 17 kts 356°
2026-05-05 17:43 -33.37947 -70.80131 1571 ft 17 kts
2026-05-05 17:43 -33.37827 -70.80132 1572 ft 17 kts 359°
2026-05-05 17:43 -33.37709 -70.80139 1572 ft 17 kts 356°
2026-05-05 17:44 -33.37592 -70.80149 1572 ft 17 kts 356°
2026-05-05 17:44 -33.37475 -70.80156 1572 ft 17 kts 357°
2026-05-05 17:44 -33.37357 -70.80161 1573 ft 17 kts 357°
2026-05-05 17:44 -33.37239 -70.80169 1573 ft 17 kts 356°
2026-05-05 17:45 -33.37129 -70.80201 1573 ft 15 kts 321°
2026-05-05 17:45 -33.37112 -70.80230 1574 ft 0 kts 303°
2026-05-05 17:45 -33.37108 -70.80239 1574 ft 7 kts 297°
2026-05-05 17:46 -33.37106 -70.80313 1579 ft 8 kts 261°
2026-05-05 17:46 -33.37134 -70.80361 1580 ft 6 kts 224°
2026-05-05 17:46 -33.37177 -70.80374 1579 ft 7 kts 177°
2026-05-05 17:46 -33.37195 -70.80373 1579 ft 0 kts 179°
2026-05-05 17:47 -33.37251 -70.80372 1579 ft 34 kts 179°
2026-05-05 17:47 -33.37740 -70.80347 1578 ft 105 kts 177°
2026-05-05 17:47 -33.38676 -70.80297 1583 ft 161 kts 178°
2026-05-05 17:47 -33.39475 -70.80253 1714 ft 178 kts 178°
2026-05-05 17:48 -33.40673 -70.80174 2464 ft 175 kts 180°
2026-05-05 17:48 -33.41897 -70.80156 3114 ft 173 kts 182°
2026-05-05 17:48 -33.43130 -70.80164 3602 ft 185 kts 181°
2026-05-05 17:48 -33.44490 -70.80132 3966 ft 207 kts 179°
2026-05-05 17:49 -33.46012 -70.80056 4316 ft 230 kts 178°
2026-05-05 17:49 -33.47692 -70.79939 4631 ft 253 kts 176°
2026-05-05 17:49 -33.49520 -70.79795 4873 ft 275 kts 176°
2026-05-05 17:49 -33.51470 -70.79643 5337 ft 284 kts 176°
2026-05-05 17:50 -33.53457 -70.79486 5989 ft 288 kts 176°
2026-05-05 17:50 -33.55466 -70.79285 6599 ft 291 kts 175°
2026-05-05 17:50 -33.57506 -70.79030 7171 ft 297 kts 174°
2026-05-05 17:50 -33.59548 -70.78758 7694 ft 302 kts 174°
2026-05-05 17:51 -33.61653 -70.78496 8295 ft 306 kts 175°
2026-05-05 17:51 -33.63792 -70.78238 8842 ft 311 kts 175°
2026-05-05 17:51 -33.65959 -70.77970 9375 ft 316 kts 175°
2026-05-05 17:51 -33.68166 -70.77692 9915 ft 321 kts 175°
2026-05-05 17:52 -33.70418 -70.77416 10256 ft 333 kts 175°
2026-05-05 17:52 -33.72778 -70.77131 10426 ft 350 kts 175°
2026-05-05 17:52 -33.75261 -70.76828 10596 ft 366 kts 175°
2026-05-05 17:52 -33.77814 -70.76415 10950 ft 374 kts 166°
2026-05-05 17:53 -33.80200 -70.75159 11470 ft 377 kts 146°
2026-05-05 17:53 -33.82120 -70.73030 12017 ft 377 kts 125°
2026-05-05 17:53 -33.83360 -70.70266 12492 ft 375 kts 105°
2026-05-05 17:53 -33.83775 -70.67194 13004 ft 371 kts 84°
2026-05-05 17:54 -33.83414 -70.64191 13519 ft 368 kts 71°
2026-05-05 17:54 -33.82828 -70.61179 13984 ft 372 kts 72°
2026-05-05 17:54 -33.82368 -70.58089 14426 ft 379 kts 77°
2026-05-05 17:54 -33.82090 -70.54917 14917 ft 385 kts 80°
2026-05-05 17:55 -33.81927 -70.51673 15386 ft 390 kts 82°
2026-05-05 17:55 -33.81820 -70.48395 15904 ft 395 kts 83°
2026-05-05 17:55 -33.81731 -70.45045 16168 ft 404 kts 83°
2026-05-05 17:55 -33.81645 -70.41670 16679 ft 405 kts 83°
2026-05-05 17:56 -33.81550 -70.38281 17232 ft 408 kts 83°
2026-05-05 17:56 -33.81447 -70.34844 17695 ft 414 kts 83°
2026-05-05 17:56 -33.81345 -70.31355 18065 ft 420 kts 83°
2026-05-05 17:56 -33.81240 -70.27820 18386 ft 424 kts 83°
2026-05-05 17:57 -33.81125 -70.24280 18893 ft 425 kts 83°
2026-05-05 17:57 -33.81010 -70.20717 19291 ft 429 kts 83°
2026-05-05 17:57 -33.80891 -70.17108 19651 ft 434 kts 83°
2026-05-05 17:57 -33.80770 -70.13515 19975 ft 437 kts 83°
2026-05-05 17:58 -33.80646 -70.09856 20458 ft 439 kts 83°
2026-05-05 17:58 -33.80528 -70.06166 20960 ft 444 kts 83°
2026-05-05 17:58 -33.80401 -70.02438 21308 ft 449 kts 83°
2026-05-05 17:58 -33.80278 -69.98680 21777 ft 450 kts 83°
2026-05-05 17:59 -33.80155 -69.94905 22237 ft 453 kts 84°
2026-05-05 17:59 -33.80038 -69.91097 22731 ft 457 kts 85°
2026-05-05 17:59 -33.80206 -69.87259 22902 ft 465 kts 95°
2026-05-05 17:59 -33.80607 -69.83426 23166 ft 467 kts 95°
2026-05-05 18:00 -33.81028 -69.79493 23616 ft 469 kts 95°
2026-05-05 18:00 -33.81435 -69.75586 23919 ft 473 kts 94°
2026-05-05 18:00 -33.81825 -69.71715 24388 ft 473 kts 94°
2026-05-05 18:00 -33.82215 -69.67769 24698 ft 476 kts 94°
2026-05-05 18:01 -33.82605 -69.63815 25088 ft 476 kts 95°
2026-05-05 18:01 -33.82995 -69.59838 25430 ft 480 kts 95°
2026-05-05 18:01 -33.83387 -69.55837 25752 ft 481 kts 95°
2026-05-05 18:01 -33.83780 -69.51834 26190 ft 480 kts 95°
2026-05-05 18:02 -33.84165 -69.47893 26499 ft 483 kts 95°
2026-05-05 18:02 -33.84556 -69.43859 26798 ft 486 kts 95°
2026-05-05 18:02 -33.84945 -69.39810 27133 ft 488 kts 95°
2026-05-05 18:02 -33.85336 -69.35751 27549 ft 490 kts 95°
2026-05-05 18:03 -33.85729 -69.31666 27924 ft 492 kts 95°
2026-05-05 18:03 -33.86120 -69.27577 28342 ft 493 kts 95°
2026-05-05 18:03 -33.86510 -69.23477 28642 ft 495 kts 95°
2026-05-05 18:03 -33.86903 -69.19343 28843 ft 499 kts 95°
2026-05-05 18:04 -33.87296 -69.15185 29179 ft 501 kts 95°
2026-05-05 18:04 -33.87690 -69.11005 29482 ft 503 kts 95°
2026-05-05 18:04 -33.88084 -69.06812 29805 ft 505 kts 95°
2026-05-05 18:04 -33.88478 -69.02597 30091 ft 507 kts 95°
2026-05-05 18:05 -33.88872 -68.98372 30355 ft 510 kts 95°
2026-05-05 18:05 -33.89266 -68.94124 30630 ft 512 kts 95°
2026-05-05 18:05 -33.89510 -68.89829 30874 ft 513 kts 87°
2026-05-05 18:05 -33.89138 -68.85574 31153 ft 511 kts 75°
2026-05-05 18:06 -33.88135 -68.81487 31410 ft 508 kts 64°
2026-05-05 18:06 -33.87181 -68.78925 31577 ft 506 kts 59°
2026-05-05 18:06 -33.85070 -68.73842 31928 ft 509 kts 58°
2026-05-05 18:06 -33.83503 -68.70081 32185 ft 511 kts 59°
2026-05-05 18:07 -33.81939 -68.66237 32421 ft 513 kts 59°
2026-05-05 18:07 -33.80393 -68.62358 32618 ft 516 kts 60°
2026-05-05 18:07 -33.78848 -68.58444 32794 ft 518 kts 60°
2026-05-05 18:07 -33.77307 -68.54525 32968 ft 520 kts 60°
2026-05-05 18:08 -33.75759 -68.50587 33132 ft 521 kts 60°
2026-05-05 18:08 -33.74210 -68.46654 33282 ft 522 kts 60°
2026-05-05 18:08 -33.72654 -68.42708 33443 ft 522 kts 60°
2026-05-05 18:08 -33.71098 -68.38768 33623 ft 522 kts 59°
2026-05-05 18:09 -33.69538 -68.34823 33812 ft 522 kts 59°
2026-05-05 18:09 -33.67978 -68.30883 33976 ft 522 kts 59°
2026-05-05 18:09 -33.66416 -68.26941 34110 ft 522 kts 59°
2026-05-05 18:09 -33.64852 -68.23000 34232 ft 523 kts 59°
2026-05-05 18:10 -33.63286 -68.19059 34381 ft 523 kts 59°
2026-05-05 18:10 -33.61738 -68.15166 34504 ft 524 kts 59°
2026-05-05 18:10 -33.60163 -68.11211 34626 ft 525 kts 59°
2026-05-05 18:10 -33.58589 -68.07261 34745 ft 525 kts 59°
2026-05-05 18:11 -33.57008 -68.03301 34869 ft 526 kts 59°
2026-05-05 18:11 -33.55428 -67.99345 34996 ft 526 kts 59°
2026-05-05 18:11 -33.53842 -67.95382 35123 ft 527 kts 59°
2026-05-05 18:11 -33.52251 -67.91409 35238 ft 528 kts 59°
2026-05-05 18:12 -33.50660 -67.87441 35369 ft 528 kts 59°
2026-05-05 18:12 -33.49065 -67.83468 35475 ft 529 kts 58°
2026-05-05 18:12 -33.47488 -67.79545 35595 ft 530 kts 58°
2026-05-05 18:12 -33.45887 -67.75566 35712 ft 530 kts 58°
2026-05-05 18:13 -33.44285 -67.71590 35821 ft 531 kts 58°
2026-05-05 18:13 -33.42680 -67.67612 35932 ft 532 kts 58°
2026-05-05 18:13 -33.41066 -67.63615 36050 ft 532 kts 58°
2026-05-05 18:14 -33.37836 -67.55631 36244 ft 534 kts 58°
2026-05-05 18:14 -33.36215 -67.51631 36366 ft 534 kts 58°
2026-05-05 18:14 -33.34588 -67.47621 36473 ft 535 kts 58°
2026-05-05 18:14 -33.32961 -67.43617 36574 ft 536 kts 58°
2026-05-05 18:15 -33.31329 -67.39604 36678 ft 536 kts 58°
2026-05-05 18:15 -33.29696 -67.35593 36782 ft 537 kts 58°
2026-05-05 18:15 -33.28060 -67.31579 36888 ft 538 kts 58°
2026-05-05 18:15 -33.26419 -67.27558 36991 ft 538 kts 58°
2026-05-05 18:16 -33.24779 -67.23539 37099 ft 539 kts 58°
2026-05-05 18:16 -33.21481 -67.15482 37289 ft 540 kts 57°
2026-05-05 18:16 -33.19849 -67.11501 37393 ft 541 kts 57°
2026-05-05 18:17 -33.18191 -67.07462 37494 ft 541 kts 57°
2026-05-05 18:17 -33.14869 -66.99379 37688 ft 543 kts 57°
2026-05-05 18:18 -33.11533 -66.91284 37871 ft 544 kts 57°
2026-05-05 18:18 -33.08182 -66.83170 38050 ft 545 kts 57°
2026-05-05 18:19 -33.04815 -66.75039 38240 ft 547 kts 57°
2026-05-05 18:19 -33.01456 -66.66952 38398 ft 548 kts 57°
2026-05-05 18:20 -32.98066 -66.58806 38592 ft 548 kts 57°
2026-05-05 18:20 -32.94677 -66.50678 38796 ft 548 kts 57°
2026-05-05 18:21 -32.91280 -66.42556 38845 ft 547 kts 57°
2026-05-05 18:21 -32.87877 -66.34437 38844 ft 547 kts 57°
2026-05-05 18:22 -32.84471 -66.26329 38841 ft 548 kts 57°
2026-05-05 18:22 -32.81057 -66.18222 38875 ft 548 kts 57°
2026-05-05 18:23 -32.77661 -66.10172 38873 ft 547 kts 57°
2026-05-05 18:23 -32.74189 -66.02118 38876 ft 546 kts 56°
2026-05-05 18:24 -32.70677 -65.94105 38878 ft 546 kts 56°
2026-05-05 18:24 -32.67175 -65.86102 38874 ft 546 kts 56°
2026-05-05 18:25 -32.63670 -65.78093 38860 ft 547 kts 56°
2026-05-05 18:25 -32.60145 -65.70062 38877 ft 551 kts 56°
2026-05-05 18:26 -32.56624 -65.62052 38878 ft 551 kts 56°
2026-05-05 18:26 -32.53077 -65.54000 38873 ft 551 kts 56°
2026-05-05 18:27 -32.49518 -65.45944 38866 ft 552 kts 56°
2026-05-05 18:27 -32.45956 -65.37895 38866 ft 552 kts 56°
2026-05-05 18:28 -32.40598 -65.25826 38873 ft 552 kts 56°
2026-05-05 18:28 -32.37022 -65.17791 38873 ft 552 kts 56°
2026-05-05 18:29 -32.33535 -65.09687 38882 ft 553 kts 57°
2026-05-05 18:29 -32.30108 -65.01592 38891 ft 553 kts 57°
2026-05-05 18:30 -32.26636 -64.93462 38894 ft 554 kts 57°
2026-05-05 18:30 -32.23147 -64.85334 38910 ft 556 kts 57°
2026-05-05 18:31 -32.19666 -64.77236 38904 ft 549 kts 57°
2026-05-05 18:31 -32.16189 -64.69177 38902 ft 552 kts 57°
2026-05-05 18:32 -32.12715 -64.61138 38899 ft 554 kts 57°
2026-05-05 18:32 -32.09210 -64.53044 38911 ft 553 kts 57°
2026-05-05 18:33 -32.05703 -64.44962 38904 ft 553 kts 57°
2026-05-05 18:33 -32.02182 -64.36876 38900 ft 555 kts 57°
2026-05-05 18:34 -31.98655 -64.28783 38888 ft 555 kts 57°
2026-05-05 18:34 -31.95126 -64.20702 38888 ft 555 kts 57°
2026-05-05 18:35 -31.91587 -64.12621 38890 ft 555 kts 57°
2026-05-05 18:35 -31.88044 -64.04549 38883 ft 555 kts 57°
2026-05-05 18:36 -31.84516 -63.96526 38884 ft 555 kts 57°
2026-05-05 18:36 -31.80961 -63.88461 38883 ft 555 kts 57°
2026-05-05 18:37 -31.77400 -63.80400 38876 ft 555 kts 57°
2026-05-05 18:37 -31.73731 -63.72435 38874 ft 554 kts 55°
2026-05-05 18:38 -31.69986 -63.64515 38878 ft 554 kts 55°
2026-05-05 18:38 -31.66879 -63.57910 38874 ft 555 kts 55°
2026-05-05 18:39 -31.63155 -63.49981 38876 ft 555 kts 55°
2026-05-05 18:39 -31.59425 -63.42050 38875 ft 555 kts 55°
2026-05-05 18:40 -31.55687 -63.34119 38878 ft 555 kts 55°
2026-05-05 18:40 -31.51971 -63.26253 38878 ft 555 kts 55°
2026-05-05 18:41 -31.48222 -63.18335 38878 ft 555 kts 55°
2026-05-05 18:41 -31.44499 -63.10400 38879 ft 556 kts 56°
2026-05-05 18:42 -31.40890 -63.02372 38884 ft 557 kts 57°
2026-05-05 18:42 -31.37270 -62.94352 38880 ft 557 kts 56°
2026-05-05 18:43 -31.33631 -62.86348 38886 ft 557 kts 56°
2026-05-05 18:43 -31.29986 -62.78359 38888 ft 557 kts 56°
2026-05-05 18:44 -31.26356 -62.70419 38882 ft 557 kts 56°
2026-05-05 18:44 -31.22698 -62.62435 38879 ft 557 kts 56°
2026-05-05 18:45 -31.19038 -62.54460 38881 ft 557 kts 56°
2026-05-05 18:45 -31.15371 -62.46482 38881 ft 557 kts 56°
2026-05-05 18:46 -31.11694 -62.38504 38879 ft 558 kts 56°
2026-05-05 18:46 -31.08008 -62.30521 38869 ft 558 kts 56°
2026-05-05 18:47 -31.04309 -62.22527 38866 ft 559 kts 56°
2026-05-05 18:47 -31.00631 -62.14598 38879 ft 559 kts 56°
2026-05-05 18:48 -30.96925 -62.06628 38877 ft 560 kts 56°
2026-05-05 18:48 -30.93209 -61.98654 38872 ft 560 kts 56°
2026-05-05 18:49 -30.89482 -61.90673 38873 ft 560 kts 56°
2026-05-05 18:49 -30.85751 -61.82698 38871 ft 561 kts 56°
2026-05-05 18:50 -30.82038 -61.74781 38867 ft 561 kts 56°
2026-05-05 18:50 -30.78294 -61.66812 38867 ft 562 kts 56°
2026-05-05 18:51 -30.74537 -61.58834 38866 ft 562 kts 56°
2026-05-05 18:51 -30.70775 -61.50860 38866 ft 563 kts 56°
2026-05-05 18:52 -30.66985 -61.42896 38867 ft 563 kts 55°
2026-05-05 18:52 -30.63161 -61.34951 38865 ft 563 kts 55°
2026-05-05 18:53 -30.59337 -61.27013 38864 ft 564 kts 55°
2026-05-05 18:53 -30.55525 -61.19107 38864 ft 565 kts 55°
2026-05-05 18:54 -30.51684 -61.11155 38867 ft 565 kts 55°
2026-05-05 18:54 -30.47830 -61.03194 38870 ft 566 kts 55°
2026-05-05 18:55 -30.43990 -60.95278 38873 ft 566 kts 55°
2026-05-05 18:55 -30.40122 -60.87318 38875 ft 567 kts 55°
2026-05-05 18:56 -30.36248 -60.79364 38881 ft 567 kts 55°
2026-05-05 18:56 -30.32364 -60.71407 38885 ft 568 kts 55°
2026-05-05 18:57 -30.28473 -60.63449 38883 ft 568 kts 55°
2026-05-05 18:57 -30.24594 -60.55533 38884 ft 568 kts 55°
2026-05-05 18:58 -30.20686 -60.47574 38886 ft 569 kts 55°
2026-05-05 18:58 -30.16965 -60.39489 38883 ft 574 kts 63°
2026-05-05 18:59 -30.14177 -60.30807 38877 ft 576 kts 67°
2026-05-05 18:59 -30.11415 -60.22100 38882 ft 577 kts 66°
2026-05-05 19:00 -30.08626 -60.13384 38883 ft 577 kts 66°
2026-05-05 19:00 -30.05832 -60.04687 38889 ft 578 kts 66°
2026-05-05 19:01 -30.03051 -59.96047 38905 ft 578 kts 66°
2026-05-05 19:01 -30.00245 -59.87352 38893 ft 578 kts 66°
2026-05-05 19:02 -29.97426 -59.78639 38896 ft 579 kts 66°
2026-05-05 19:02 -29.94605 -59.69940 38894 ft 579 kts 66°
2026-05-05 19:03 -29.91773 -59.61233 38900 ft 579 kts 66°
2026-05-05 19:03 -29.88954 -59.52588 38899 ft 579 kts 66°
2026-05-05 19:04 -29.86109 -59.43885 38898 ft 580 kts 66°
2026-05-05 19:04 -29.83264 -59.35204 38902 ft 580 kts 66°
2026-05-05 19:05 -29.80407 -59.26508 38906 ft 580 kts 66°
2026-05-05 19:05 -29.77547 -59.17827 38905 ft 580 kts 66°
2026-05-05 19:06 -29.74683 -59.09157 38915 ft 580 kts 66°
2026-05-05 19:06 -29.71811 -59.00484 38912 ft 580 kts 66°
2026-05-05 19:07 -29.68933 -58.91814 38916 ft 580 kts 66°
2026-05-05 19:07 -29.66106 -58.83197 38917 ft 580 kts 68°
2026-05-05 19:08 -29.63351 -58.74475 38921 ft 580 kts 68°
2026-05-05 19:08 -29.60587 -58.65769 38923 ft 580 kts 68°
2026-05-05 19:09 -29.57804 -58.57069 38925 ft 580 kts 68°
2026-05-05 19:09 -29.55012 -58.48373 38927 ft 580 kts 68°
2026-05-05 19:10 -29.52216 -58.39688 38928 ft 580 kts 68°
2026-05-05 19:10 -29.49415 -58.31006 38933 ft 580 kts 68°
2026-05-05 19:11 -29.46610 -58.22333 38935 ft 579 kts 68°
2026-05-05 19:11 -29.43817 -58.13721 38935 ft 579 kts 68°
2026-05-05 19:12 -29.40980 -58.05062 38937 ft 579 kts 66°
2026-05-05 19:12 -29.37817 -57.96586 38938 ft 578 kts 64°
2026-05-05 19:13 -29.34612 -57.88135 38939 ft 578 kts 64°
2026-05-05 19:13 -29.31440 -57.79656 38943 ft 578 kts 65°
2026-05-05 19:14 -29.28278 -57.71178 38945 ft 578 kts 65°
2026-05-05 19:14 -29.25133 -57.62765 38947 ft 578 kts 65°
2026-05-05 19:15 -29.22079 -57.54248 38949 ft 579 kts 67°
2026-05-05 19:15 -29.19158 -57.45654 38949 ft 579 kts 67°
2026-05-05 19:16 -29.16208 -57.37085 38955 ft 579 kts 67°
2026-05-05 19:16 -29.13235 -57.28529 38953 ft 578 kts 67°
2026-05-05 19:17 -29.10271 -57.20031 38957 ft 578 kts 67°
2026-05-05 19:17 -29.07285 -57.11486 38964 ft 578 kts 67°
2026-05-05 19:18 -29.04294 -57.02948 38959 ft 578 kts 67°
2026-05-05 19:18 -29.01299 -56.94416 38964 ft 578 kts 67°
2026-05-05 19:19 -28.98298 -56.85891 38966 ft 578 kts 67°
2026-05-05 19:19 -28.95301 -56.77393 38965 ft 578 kts 67°
2026-05-05 19:20 -28.92287 -56.68869 38968 ft 578 kts 67°
2026-05-05 19:20 -28.89273 -56.60366 38970 ft 578 kts 67°
2026-05-05 19:21 -28.86275 -56.51925 38967 ft 578 kts 67°
2026-05-05 19:21 -28.83251 -56.43429 38974 ft 578 kts 67°
2026-05-05 19:22 -28.80224 -56.34941 38973 ft 577 kts 67°
2026-05-05 19:22 -28.77189 -56.26453 38979 ft 577 kts 68°
2026-05-05 19:23 -28.74154 -56.17983 38976 ft 577 kts 68°
2026-05-05 19:23 -28.71155 -56.09560 38981 ft 577 kts 68°
2026-05-05 19:24 -28.68220 -56.01055 38984 ft 577 kts 69°
2026-05-05 19:24 -28.65272 -55.92548 38985 ft 577 kts 68°
2026-05-05 19:25 -28.62312 -55.84059 38986 ft 577 kts 68°
2026-05-05 19:25 -28.59342 -55.75567 38979 ft 577 kts 68°
2026-05-05 19:26 -28.56369 -55.67088 38984 ft 577 kts 69°
2026-05-05 19:26 -28.53391 -55.58615 38988 ft 577 kts 69°
2026-05-05 19:27 -28.50912 -55.51575 38987 ft 577 kts 69°
2026-05-05 19:27 -28.47925 -55.43110 38988 ft 577 kts 69°
2026-05-05 19:28 -28.44933 -55.34652 38994 ft 576 kts 69°
2026-05-05 19:28 -28.41951 -55.26240 38999 ft 576 kts 69°
2026-05-05 19:29 -28.38951 -55.17798 38998 ft 576 kts 69°
2026-05-05 19:29 -28.35950 -55.09372 39000 ft 576 kts 69°
2026-05-05 19:30 -28.32942 -55.00946 39007 ft 575 kts 69°
2026-05-05 19:30 -28.29929 -54.92526 39014 ft 575 kts 69°
2026-05-05 19:31 -28.26936 -54.84179 39017 ft 574 kts 69°
2026-05-05 19:31 -28.23919 -54.75783 39017 ft 574 kts 69°
2026-05-05 19:32 -28.20895 -54.67393 39023 ft 574 kts 69°
2026-05-05 19:32 -28.17871 -54.59023 39025 ft 574 kts 69°
2026-05-05 19:33 -28.14843 -54.50651 39030 ft 573 kts 69°
2026-05-05 19:33 -28.11811 -54.42294 39032 ft 573 kts 69°
2026-05-05 19:34 -28.08780 -54.33958 39034 ft 572 kts 69°
2026-05-05 19:35 -28.04238 -54.21502 39041 ft 572 kts 69°
2026-05-05 19:35 -28.01195 -54.13176 39042 ft 571 kts 69°
2026-05-05 19:36 -27.98151 -54.04867 39042 ft 571 kts 69°
2026-05-05 19:36 -27.95101 -53.96563 39047 ft 571 kts 69°
2026-05-05 19:37 -27.92071 -53.88330 39056 ft 571 kts 69°
2026-05-05 19:37 -27.89019 -53.80055 39061 ft 570 kts 69°
2026-05-05 19:38 -27.85963 -53.71787 39068 ft 570 kts 69°
2026-05-05 19:38 -27.82901 -53.63521 39070 ft 569 kts 69°
2026-05-05 19:39 -27.79839 -53.55270 39072 ft 569 kts 69°
2026-05-05 19:39 -27.76770 -53.47023 39078 ft 569 kts 69°
2026-05-05 19:40 -27.73705 -53.38802 39073 ft 568 kts 69°
2026-05-05 19:40 -27.70634 -53.30583 39080 ft 568 kts 69°
2026-05-05 19:41 -27.67581 -53.22430 39072 ft 567 kts 69°
2026-05-05 19:41 -27.64510 -53.14244 39075 ft 566 kts 69°
2026-05-05 19:42 -27.61434 -53.06065 39083 ft 566 kts 69°
2026-05-05 19:42 -27.58359 -52.97896 39084 ft 565 kts 69°
2026-05-05 19:43 -27.55288 -52.89756 39081 ft 564 kts 69°
2026-05-05 19:43 -27.52214 -52.81626 39087 ft 564 kts 69°
2026-05-05 19:44 -27.49131 -52.73500 39094 ft 563 kts 69°
2026-05-05 19:44 -27.46052 -52.65409 39104 ft 562 kts 69°
2026-05-05 19:45 -27.42986 -52.57362 39118 ft 563 kts 69°
2026-05-05 19:45 -27.39904 -52.49286 39118 ft 561 kts 69°
2026-05-05 19:46 -27.36823 -52.41218 39109 ft 560 kts 69°
2026-05-05 19:46 -27.33737 -52.33164 39100 ft 561 kts 69°
2026-05-05 19:47 -27.30642 -52.25109 39103 ft 558 kts 69°
2026-05-05 19:47 -27.27563 -52.17103 39105 ft 558 kts 69°
2026-05-05 19:48 -27.24483 -52.09109 39106 ft 557 kts 69°
2026-05-05 19:48 -27.21416 -52.01173 39111 ft 556 kts 69°
2026-05-05 19:49 -27.18325 -51.93202 39109 ft 556 kts 69°
2026-05-05 19:49 -27.15233 -51.85247 39118 ft 555 kts 69°
2026-05-05 19:50 -27.12140 -51.77307 39124 ft 554 kts 69°
2026-05-05 19:50 -27.09052 -51.69385 39125 ft 554 kts 69°
2026-05-05 19:51 -27.05959 -51.61473 39138 ft 554 kts 69°
2026-05-05 19:51 -27.02856 -51.53559 39138 ft 553 kts 69°
2026-05-05 19:52 -26.99763 -51.45680 39139 ft 552 kts 69°
2026-05-05 19:52 -26.96668 -51.37808 39143 ft 551 kts 69°
2026-05-05 19:53 -26.93585 -51.29984 39151 ft 551 kts 68°
2026-05-05 19:53 -26.90493 -51.22153 39148 ft 549 kts 69°
2026-05-05 19:54 -26.87397 -51.14321 39147 ft 549 kts 69°
2026-05-05 19:54 -26.84304 -51.06516 39147 ft 548 kts 69°
2026-05-05 19:55 -26.81212 -50.98728 39149 ft 547 kts 69°
2026-05-05 19:55 -26.78117 -50.90951 39156 ft 546 kts 69°
2026-05-05 19:56 -26.75021 -50.83184 39159 ft 546 kts 69°
2026-05-05 19:56 -26.71920 -50.75426 39168 ft 546 kts 68°
2026-05-05 19:57 -26.68837 -50.67735 39171 ft 545 kts 68°
2026-05-05 19:57 -26.65731 -50.60003 39171 ft 545 kts 68°
2026-05-05 19:58 -26.62633 -50.52295 39162 ft 542 kts 69°
2026-05-05 19:58 -26.59587 -50.44587 39162 ft 542 kts 69°
2026-05-05 19:59 -26.56544 -50.36880 39167 ft 541 kts 69°
2026-05-05 19:59 -26.53465 -50.29204 39158 ft 541 kts 68°
2026-05-05 20:00 -26.50351 -50.21553 39155 ft 540 kts 68°
2026-05-05 20:00 -26.47255 -50.13938 39151 ft 538 kts 68°
2026-05-05 20:01 -26.44180 -50.06377 39150 ft 538 kts 68°
2026-05-05 20:01 -26.41088 -49.98789 39150 ft 537 kts 68°
2026-05-05 20:02 -26.37991 -49.91204 39160 ft 537 kts 68°
2026-05-05 20:02 -26.34892 -49.83624 39167 ft 537 kts 68°
2026-05-05 20:03 -26.31802 -49.76056 39163 ft 535 kts 68°
2026-05-05 20:03 -26.28737 -49.68499 39165 ft 535 kts 68°
2026-05-05 20:04 -26.25690 -49.61008 39170 ft 534 kts 68°
2026-05-05 20:04 -26.22624 -49.53492 39168 ft 533 kts 68°
2026-05-05 20:05 -26.19536 -49.45990 39168 ft 532 kts 68°
2026-05-05 20:05 -26.16441 -49.38501 39166 ft 531 kts 68°
2026-05-05 20:06 -26.13309 -49.31042 39152 ft 532 kts 63°
2026-05-05 20:06 -26.11275 -49.27597 39163 ft 533 kts 51°
2026-05-05 20:06 -26.08736 -49.24603 39160 ft 532 kts 40°
2026-05-05 20:07 -26.02592 -49.20086 39153 ft 529 kts 26°
2026-05-05 20:07 -25.96206 -49.16138 39155 ft 529 kts 27°
2026-05-05 20:08 -25.89841 -49.11995 39156 ft 530 kts 28°
2026-05-05 20:08 -25.83513 -49.07782 39162 ft 530 kts 28°
2026-05-05 20:09 -25.77185 -49.03565 39173 ft 530 kts 28°
2026-05-05 20:09 -25.70851 -48.99353 39190 ft 530 kts 28°
2026-05-05 20:10 -25.64559 -48.95177 39190 ft 531 kts 28°
2026-05-05 20:10 -25.58216 -48.90973 39191 ft 531 kts 28°
2026-05-05 20:11 -25.51859 -48.86767 39176 ft 532 kts 29°
2026-05-05 20:11 -25.45493 -48.82581 39164 ft 531 kts 27°
2026-05-05 20:12 -25.39004 -48.78647 39150 ft 531 kts 26°
2026-05-05 20:12 -25.32552 -48.74774 39145 ft 531 kts 26°
2026-05-05 20:13 -25.26053 -48.70835 39149 ft 532 kts 26°
2026-05-05 20:13 -25.19560 -48.66911 39147 ft 531 kts 26°
2026-05-05 20:14 -25.13072 -48.63009 39144 ft 531 kts 26°
2026-05-05 20:14 -25.06579 -48.59102 39153 ft 532 kts 26°
2026-05-05 20:15 -25.00071 -48.55192 39157 ft 532 kts 26°
2026-05-05 20:15 -24.93574 -48.51273 39156 ft 532 kts 27°
2026-05-05 20:16 -24.87084 -48.47345 39162 ft 532 kts 27°
2026-05-05 20:16 -24.80625 -48.43436 39155 ft 533 kts 27°
2026-05-05 20:17 -24.74110 -48.39511 39147 ft 534 kts 27°
2026-05-05 20:17 -24.67613 -48.35596 39145 ft 532 kts 27°
2026-05-05 20:18 -24.62163 -48.32321 39145 ft 534 kts 27°
2026-05-05 20:18 -24.55653 -48.28410 39147 ft 533 kts 27°
2026-05-05 20:19 -24.49184 -48.24531 39141 ft 532 kts 27°
2026-05-05 20:19 -24.42678 -48.20631 39155 ft 532 kts 27°
2026-05-05 20:20 -24.36169 -48.16732 39158 ft 533 kts 27°
2026-05-05 20:20 -24.29652 -48.12858 39160 ft 532 kts 26°
2026-05-05 20:21 -24.23133 -48.09024 39147 ft 532 kts 26°
2026-05-05 20:21 -24.16608 -48.05183 39145 ft 532 kts 26°
2026-05-05 20:22 -24.10122 -48.01367 39147 ft 532 kts 26°
2026-05-05 20:22 -24.03609 -47.97542 38674 ft 531 kts 27°
2026-05-05 20:22 -24.00356 -47.95632 38011 ft 530 kts 27°
2026-05-05 20:23 -23.97101 -47.93721 37253 ft 530 kts 26°
2026-05-05 20:23 -23.93854 -47.91816 36386 ft 530 kts 26°
2026-05-05 20:23 -23.90597 -47.89906 35477 ft 530 kts 26°
2026-05-05 20:23 -23.87349 -47.88004 34494 ft 530 kts 26°
2026-05-05 20:24 -23.84101 -47.86103 33424 ft 528 kts 26°
2026-05-05 20:24 -23.80862 -47.84209 32252 ft 528 kts 26°
2026-05-05 20:24 -23.77703 -47.82226 30902 ft 522 kts 32°
2026-05-05 20:24 -23.74786 -47.79866 29379 ft 521 kts 40°
2026-05-05 20:25 -23.72170 -47.77189 28327 ft 510 kts 44°
2026-05-05 20:25 -23.69668 -47.74511 27578 ft 497 kts 44°
2026-05-05 20:25 -23.67231 -47.71935 27157 ft 479 kts 44°
2026-05-05 20:25 -23.64872 -47.69453 26912 ft 467 kts 44°
2026-05-05 20:26 -23.62515 -47.66978 26737 ft 472 kts 44°
2026-05-05 20:26 -23.60149 -47.64493 26432 ft 472 kts 44°
2026-05-05 20:26 -23.57796 -47.62022 26080 ft 467 kts 44°
2026-05-05 20:26 -23.55466 -47.59575 25736 ft 461 kts 44°
2026-05-05 20:27 -23.53162 -47.57158 25384 ft 458 kts 44°
2026-05-05 20:27 -23.50904 -47.54789 25044 ft 456 kts 44°
2026-05-05 20:27 -23.48631 -47.52386 24725 ft 452 kts 46°
2026-05-05 20:27 -23.46676 -47.49719 24162 ft 452 kts 58°
2026-05-05 20:28 -23.45264 -47.46665 23313 ft 454 kts 70°
2026-05-05 20:28 -23.44449 -47.43337 22235 ft 454 kts 82°
2026-05-05 20:28 -23.44283 -47.39940 21170 ft 447 kts 94°
2026-05-05 20:28 -23.44780 -47.36632 20190 ft 438 kts 107°
2026-05-05 20:29 -23.45642 -47.33488 19199 ft 431 kts 107°
2026-05-05 20:29 -23.46263 -47.30317 18210 ft 425 kts 99°
2026-05-05 20:29 -23.46505 -47.27134 17196 ft 418 kts 92°
2026-05-05 20:29 -23.46481 -47.23996 16265 ft 413 kts 88°
2026-05-05 20:30 -23.46317 -47.20893 15609 ft 407 kts 86°
2026-05-05 20:30 -23.46102 -47.17845 15199 ft 394 kts 86°
2026-05-05 20:30 -23.45885 -47.14963 14961 ft 369 kts 86°
2026-05-05 20:30 -23.45687 -47.12294 14751 ft 346 kts 86°
2026-05-05 20:31 -23.45502 -47.09761 14567 ft 325 kts 86°
2026-05-05 20:31 -23.45329 -47.07355 14402 ft 305 kts 86°
2026-05-05 20:31 -23.45169 -47.05106 13903 ft 297 kts 86°
2026-05-05 20:31 -23.45012 -47.02858 13037 ft 302 kts 86°
2026-05-05 20:32 -23.44850 -47.00552 12344 ft 300 kts 86°
2026-05-05 20:32 -23.44693 -46.98335 11727 ft 296 kts 85°
2026-05-05 20:32 -23.44535 -46.96107 11090 ft 293 kts 85°
2026-05-05 20:32 -23.44379 -46.93904 10463 ft 290 kts 85°
2026-05-05 20:33 -23.44224 -46.91729 9805 ft 287 kts 85°
2026-05-05 20:33 -23.44068 -46.89568 9091 ft 284 kts 85°
2026-05-05 20:33 -23.43914 -46.87431 8428 ft 282 kts 85°
2026-05-05 20:33 -23.43765 -46.85374 8187 ft 262 kts 85°
2026-05-05 20:34 -23.43627 -46.83459 7891 ft 248 kts 86°
2026-05-05 20:34 -23.43493 -46.81603 7400 ft 245 kts 86°
2026-05-05 20:34 -23.43360 -46.79762 6893 ft 244 kts 86°
2026-05-05 20:34 -23.43228 -46.77918 6423 ft 244 kts 86°
2026-05-05 20:35 -23.43097 -46.76136 6296 ft 228 kts 86°
2026-05-05 20:35 -23.42975 -46.74464 6177 ft 215 kts 86°
2026-05-05 20:35 -23.42860 -46.72889 6057 ft 203 kts 86°
2026-05-05 20:35 -23.42755 -46.71410 5989 ft 188 kts 87°
2026-05-05 20:36 -23.42930 -46.70060 5837 ft 177 kts 112°
2026-05-05 20:36 -23.43574 -46.68948 5572 ft 173 kts 128°
2026-05-05 20:36 -23.44292 -46.67911 5308 ft 174 kts 127°
2026-05-05 20:36 -23.44999 -46.66855 5140 ft 170 kts 126°
2026-05-05 20:37 -23.45679 -46.65794 5093 ft 170 kts 125°
2026-05-05 20:37 -23.46337 -46.64743 4891 ft 166 kts 124°
2026-05-05 20:37 -23.46968 -46.63697 4610 ft 161 kts 122°
2026-05-05 20:37 -23.47325 -46.62562 4543 ft 156 kts 97°
2026-05-05 20:38 -23.47262 -46.61384 4477 ft 157 kts 81°
2026-05-05 20:38 -23.46988 -46.60217 4420 ft 159 kts 75°
2026-05-05 20:38 -23.46666 -46.59081 4307 ft 156 kts 75°
2026-05-05 20:38 -23.46362 -46.57941 4147 ft 157 kts 75°
2026-05-05 20:39 -23.46055 -46.56799 3962 ft 156 kts 76°
2026-05-05 20:39 -23.45752 -46.55668 3774 ft 153 kts 75°
2026-05-05 20:39 -23.45451 -46.54549 3575 ft 157 kts 76°
2026-05-05 20:39 -23.45147 -46.53419 3380 ft 153 kts 75°
2026-05-05 20:40 -23.44850 -46.52303 3214 ft 155 kts 75°
2026-05-05 20:40 -23.44563 -46.51174 2940 ft 149 kts 72°
2026-05-05 20:40 -23.44264 -46.50086 2791 ft 154 kts 75°
2026-05-05 20:40 -23.43961 -46.48982 2533 ft 152 kts 73°
2026-05-05 20:41 -23.43671 -46.47926 2478 ft 127 kts 74°
2026-05-05 20:41 -23.43481 -46.47215 2476 ft 69 kts 73°
2026-05-05 20:41 -23.43356 -46.46912 2481 ft 36 kts 44°
2026-05-05 20:41 -23.43200 -46.46758 2475 ft 27 kts 43°
2026-05-05 20:42 -23.43078 -46.46719 2477 ft 16 kts 343°
2026-05-05 20:42 -23.42974 -46.46752 2477 ft 15 kts 342°
2026-05-05 20:42 -23.42871 -46.46786 2478 ft 14 kts 344°
2026-05-05 20:42 -23.42783 -46.46826 2477 ft 12 kts 312°
2026-05-05 20:43 -23.42784 -46.46905 2478 ft 11 kts 262°
2026-05-05 20:43 -23.42804 -46.46987 2475 ft 12 kts 255°
2026-05-05 20:43 -23.42826 -46.47074 2477 ft 12 kts 261°
2026-05-05 20:43 -23.42787 -46.47131 2476 ft 9 kts 331°
2026-05-05 20:44 -23.42724 -46.47156 2478 ft 10 kts 341°
2026-05-05 20:44 -23.42658 -46.47177 2476 ft 7 kts 334°
2026-05-05 20:44 -23.42655 -46.47215 2474 ft 5 kts 268°
2026-05-05 20:44 -23.42660 -46.47237 2477 ft 2 kts 253°
2026-05-05 20:45 -23.42673 -46.47282 2475 ft 2 kts 253°
2026-05-05 20:45 -23.42675 -46.47290 2474 ft 1 kts 253°
2026-05-05 20:45 -23.42675 -46.47291 2474 ft 0 kts 253°